This is the latest recevied weather packets stored in our database for station/object W4ZHA. If no packets are shown the sender has not sent any weather packets the latest 10 day(s).
| Time | Temp. | Humidity | Pressure | Rain* | Wind** | Luminosity | Snow |
|---|---|---|---|---|---|---|---|
| 1777397107 | 20.56° C | 69% | 1020 hPa | 0 mm | - | 168 W/m² | - |
| 1777396804 | 19.44° C | 71% | 1020 hPa | 0 mm | - | 234 W/m² | - |
| 1777396500 | 18.89° C | 72% | 1020 hPa | 0 mm | - | 202 W/m² | - |
| 1777396197 | 18.89° C | 73% | 1020 hPa | 0 mm | - | 172 W/m² | - |
| 1777395893 | 18.89° C | 75% | 1020 hPa | 0 mm | - | 178 W/m² | - |
| 1777395588 | 18.89° C | 76% | 1020 hPa | 0 mm | - | 206 W/m² | - |
| 1777395284 | 18.89° C | 78% | 1020.3 hPa | 0 mm | - | 192 W/m² | - |
| 1777394983 | 18.33° C | 79% | 1020.3 hPa | 0 mm | - | 189 W/m² | - |
| 1777394679 | 18.33° C | 84% | 1020.3 hPa | 0 mm | - | 164 W/m² | - |
| 1777394375 | 18.33° C | 88% | 1020 hPa | 0 mm | - | 155 W/m² | - |
| 1777394072 | 18.33° C | 92% | 1020 hPa | 0 mm | - | 179 W/m² | - |
| 1777393766 | 17.78° C | 93% | 1020 hPa | 0 mm | - | 186 W/m² | - |
| 1777393461 | 18.33° C | 98% | 1020 hPa | 0 mm | - | 178 W/m² | - |
| 1777393157 | 18.33° C | 99% | 1020.3 hPa | 0 mm | - | 181 W/m² | - |
| 1777392854 | 17.78° C | 99% | 1020.6 hPa | 0 mm | - | 151 W/m² | - |
| 1777392549 | 17.78° C | 97% | 1020.3 hPa | 0 mm | - | 239 W/m² | - |
| 1777392245 | 18.33° C | 99% | 1020.6 hPa | 0 mm | - | 269 W/m² | - |
| 1777391940 | 17.78° C | 99% | 1020.6 hPa | 0 mm | - | 166 W/m² | - |
| 1777391636 | 16.67° C | 99% | 1020.6 hPa | 0 mm | - | 155 W/m² | - |
| 1777391332 | 17.22° C | 99% | 1020.6 hPa | 0 mm | - | 115 W/m² | - |
| 1777391029 | 17.22° C | 99% | 1020.6 hPa | 0 mm | - | 150 W/m² | - |
| 1777390724 | 17.22° C | 99% | 1020.6 hPa | 0 mm | - | 162 W/m² | - |
| 1777390422 | 16.67° C | 99% | 1021 hPa | 0 mm | - | 135 W/m² | - |
| 1777390118 | 16.67° C | 99% | 1021 hPa | 0 mm | - | 120 W/m² | - |
| 1777389814 | 16.67° C | 99% | 1020.6 hPa | 0 mm | - | 108 W/m² | - |
* Rain latest hour (hover to see other rain measurements)
** Current wind speed in m/s (hover to see current wind gust speed)